Location: ??????
(36.0418°N, 43.6351°E)
Time: 21:43:41
(UTC+00:00)

Cosmos 2184 Rocket - Pass Details

Date: 07 March 2021
Orbit: 960 x 1001 km, 82.9° (Epoch: 18 April)

Event Time Altitude Azimuth Distance (km) Brightness Sun altitude
Rises 02:41:07 0° 349° (N) 3,707 6.9 -10.2°
Reaches altitude 10° 02:43:39 10° 347° (NNW) 2,760 6.2 -9.7°
Maximum altitude 02:49:54 63° 267° (W) 1,103 4.1 -8.4°
Drops below altitude 10° 02:56:09 10° 188° (S) 2,761 6.3 -7.2°
Sets 02:58:42 0° 185° (S) 3,708 7.0 -6.7°
